Theta_e
328 328 328 328 327 327 328 329 329 330 330 331 331 332 332 330 325 306 303 312 319 342 341 323 311 314 308 303 304 303 294 291 293 294 296 299 296 295 295 293 292 292 290 292 291
328 328 328 328 328 328 329 329 329 329 330 331 331 331 330 328 309 303 322 340 348 348 315 308 305 307 302 300 299 299 293 295 297 297 295 299 297 294 293 291 291 289 290 291 289
327 327 327 328 328 329 329 329 329 330 330 331 331 330 329 325 302 302 334 344 345 342 315 309 306 305 300 297 296 294 295 296 295 297 299 298 295 295 293 290 293 291 290 288 288
327 327 327 328 328 329 329 329 329 330 330 331 330 329 328 310 296 305 338 338 337 324 311 305 302 299 295 294 296 293 295 296 297 299 298 295 297 293 293 296 295 295 292 289 288
327 327 327 328 329 329 328 328 328 329 330 329 329 328 311 301 302 309 332 323 310 308 304 303 300 298 294 294 295 292 293 294 295 297 296 296 294 294 293 296 294 292 290 289 289
326 327 328 328 328 327 327 327 328 328 328 328 328 326 304 297 308 309 309 309 308 306 304 303 300 299 296 294 294 293 293 292 293 293 294 293 292 292 294 294 292 290 289 289 289
327 327 326 326 326 326 326 327 328 327 326 327 328 315 302 302 308 308 310 306 307 306 304 303 302 299 296 293 295 294 289 291 291 292 292 292 290 291 294 292 291 289 288 289 289
326 326 325 324 324 324 325 326 325 325 326 327 328 305 300 308 308 308 308 306 307 306 305 304 304 300 296 295 294 290 290 287 291 292 292 291 287 291 293 291 291 289 287 288 289
325 324 323 322 323 323 323 324 324 326 327 328 305 301 299 314 305 306 305 304 306 304 303 308 302 296 295 291 288 289 285 286 290 292 290 289 288 290 290 290 290 288 287 288 289
323 322 321 322 322 322 321 322 323 320 315 312 308 299 302 301 306 306 305 306 302 302 301 300 296 292 289 289 282 284 285 286 286 290 289 286 287 292 291 290 290 289 288 287 290
322 321 321 321 322 321 315 306 302 302 303 298 299 299 301 304 305 302 303 302 301 298 293 294 290 288 290 290 288 286 284 284 286 291 289 288 289 292 293 288 288 289 288 289 290
321 321 320 321 320 319 310 304 303 305 297 303 302 302 304 302 299 301 303 296 296 291 291 290 288 291 292 291 289 287 285 284 287 291 289 288 288 292 291 290 290 292 291 290 291
320 319 319 319 318 313 309 307 313 306 295 300 302 301 301 302 298 298 299 297 293 291 289 288 290 294 292 289 288 285 285 284 286 288 288 287 286 287 289 289 290 291 292 292 292
319 319 318 317 310 308 307 312 311 304 290 293 297 300 302 302 297 301 299 296 293 290 290 289 293 292 289 288 288 283 289 289 287 284 281 286 281 286 287 290 290 291 289 291 291
318 318 318 315 308 308 310 310 307 302 281 296 298 304 301 298 298 299 300 297 290 292 291 289 290 289 288 289 290 287 291 287 287 283 282 282 281 285 285 289 291 293 291 291 292
318 318 317 312 309 309 309 306 304 292 283 293 298 296 295 297 297 299 297 298 296 292 291 291 293 291 291 291 290 291 286 287 285 283 280 282 282 284 285 289 290 292 293 293 292
318 317 314 312 306 309 308 303 291 285 294 292 293 296 294 293 294 295 292 290 289 286 284 289 290 290 292 288 290 288 283 279 280 280 280 282 281 286 290 290 291 293 294 294 293
316 315 313 312 311 308 304 297 284 291 292 296 295 294 291 293 292 293 291 289 289 289 286 283 284 290 291 288 286 285 284 280 278 277 279 282 280 288 292 291 291 292 292 292 292
313 310 309 313 312 306 298 287 288 291 294 294 294 290 289 293 291 290 289 289 290 291 286 283 285 290 290 289 288 284 283 284 282 278 277 281 284 290 291 291 289 290 290 291 292
306 306 306 313 310 304 295 291 290 295 296 295 288 292 287 288 288 287 286 291 291 291 289 286 283 288 289 289 288 286 287 282 280 277 275 278 279 285 289 291 291 291 290 291 292
308 300 307 311 306 298 290 290 293 298 297 294 290 290 290 289 288 287 289 291 292 290 289 287 284 284 287 285 285 283 282 282 282 280 277 275 280 287 289 291 290 291 291 291 292
303 294 307 306 296 292 291 294 298 297 297 296 295 294 292 290 288 288 289 291 292 291 287 286 284 281 285 286 287 284 284 283 280 278 278 276 279 292 292 291 290 290 291 291 292
301 301 310 304 291 290 293 296 297 296 295 294 294 295 293 291 289 290 291 293 292 290 288 287 283 280 284 284 284 284 285 284 283 281 279 277 284 291 290 290 291 289 291 292 292
299 293 299 298 296 292 292 294 295 298 297 296 294 295 292 290 292 290 290 293 292 291 299 293 284 284 284 286 286 282 284 285 285 279 283 281 287 292 294 295 296 291 291 291 291
298 293 296 292 295 293 294 294 293 293 295 296 293 294 293 288 289 289 290 291 291 296 290 288 283 284 286 287 287 287 287 287 283 287 283 288 288 292 294 296 297 292 290 290 292
294 296 295 293 294 293 293 292 294 295 294 293 292 295 293 290 292 290 290 290 291 288 288 287 284 284 284 288 287 285 286 288 288 289 288 289 288 295 296 296 295 292 292 290 290
303 300 297 293 290 292 292 293 294 296 296 295 294 292 291 294 295 294 293 293 293 290 287 286 285 282 284 284 284 282 285 289 290 289 289 286 292 296 293 294 290 291 290 290 291
Wind_Speed
3 2 3 6 5 5 7 8 8 10 11 11 12 12 13 13 10 4 4 5 5 8 5 6 2 1 4 4 5 3 5 2 5 7 5 5 5 1 1 6 3 6 5 2 14
4 2 4 5 7 6 7 9 9 11 11 11 11 11 11 11 1 3 4 9 10 5 1 2 3 3 4 3 4 5 4 8 5 5 4 6 5 9 4 4 5 4 1 5 16
3 4 4 6 7 7 7 9 10 12 11 11 11 11 11 6 2 2 6 11 10 4 3 0 1 3 3 3 4 1 4 2 3 3 5 6 3 5 7 6 8 11 7 11 14
4 5 6 6 7 7 8 10 10 11 11 10 11 11 11 2 2 3 7 10 7 6 1 1 3 4 3 0 2 1 1 2 1 1 5 6 6 5 8 8 5 10 9 13 18
4 6 6 7 8 8 9 10 11 9 10 10 10 11 1 2 4 3 8 9 3 2 3 0 3 4 4 3 1 2 1 2 2 4 1 5 5 9 10 11 1 8 11 16 17
5 6 7 7 9 10 11 12 11 10 9 9 9 9 0 2 0 4 6 5 6 4 5 5 3 4 6 3 2 2 1 2 2 0 1 3 3 3 7 4 8 10 12 14 16
6 7 7 9 10 11 12 12 12 10 9 8 6 2 1 6 1 4 4 1 3 2 2 2 3 3 4 4 3 4 1 4 4 3 2 2 8 13 8 5 8 10 9 11 15
6 7 9 10 11 12 12 14 13 11 9 6 3 1 4 2 1 3 3 2 3 2 3 3 7 7 4 4 4 3 3 3 2 6 1 4 12 7 8 9 11 10 9 11 14
6 8 10 11 11 12 13 15 13 11 7 5 1 1 6 3 1 2 0 2 4 1 2 3 5 4 3 4 4 5 3 3 8 8 3 5 10 4 3 7 10 10 10 12 11
7 9 10 12 12 12 14 9 5 7 1 1 1 4 2 2 2 3 1 1 1 3 4 5 6 4 3 4 4 3 4 5 6 4 3 4 19 16 7 8 13 10 10 11 13
8 9 10 11 11 10 8 4 6 4 5 3 2 3 2 4 1 1 2 3 1 6 0 2 4 6 8 7 3 2 4 6 5 3 4 9 16 21 10 8 11 13 11 13 17
7 8 9 10 10 7 1 5 2 2 5 2 3 4 3 2 3 3 2 1 1 2 1 5 6 6 3 5 4 4 4 7 6 2 5 8 17 18 11 10 11 17 14 17 13
8 8 9 11 9 3 3 1 1 2 1 5 3 3 3 3 3 3 1 1 2 2 4 7 4 4 3 2 3 4 5 4 5 5 4 7 12 7 3 4 5 9 10 10 16
9 9 10 13 5 0 1 4 1 2 5 5 2 3 2 2 3 1 1 2 1 4 3 5 2 3 2 3 6 4 4 2 3 3 4 4 9 9 5 8 7 10 10 14 14
11 11 11 6 4 2 1 2 1 4 3 2 2 1 1 3 3 0 1 3 4 3 3 8 4 4 4 6 6 7 1 0 0 1 3 1 1 11 4 8 12 12 12 13 13
12 10 10 3 3 0 2 2 4 7 6 1 1 1 1 1 1 1 1 2 0 2 2 7 1 5 7 2 2 3 2 5 4 2 3 6 7 7 6 9 6 6 10 12 11
13 11 3 2 2 1 2 4 6 3 2 2 2 2 2 2 2 3 1 2 3 2 3 5 4 1 2 3 2 4 5 5 5 2 8 2 3 12 11 9 8 8 10 11 9
12 7 0 1 1 2 3 6 2 4 5 0 1 0 3 2 3 1 2 4 4 4 1 2 8 6 3 4 5 5 7 6 6 4 6 2 8 11 8 8 8 10 10 8 10
6 3 3 3 2 3 6 2 7 6 2 2 0 1 2 1 2 1 4 4 5 9 8 3 6 1 1 1 2 3 4 2 1 1 2 6 9 11 9 10 8 11 8 11 10
3 2 2 5 2 4 5 5 4 3 1 1 2 4 3 2 1 1 2 4 3 4 1 2 5 1 1 1 2 3 3 2 3 4 7 7 6 9 10 10 9 9 11 12 9
4 3 3 5 3 5 4 7 4 3 1 3 2 2 4 3 4 3 5 5 2 3 3 4 3 4 2 6 8 2 3 2 2 5 5 5 8 7 7 8 9 11 10 11 11
2 1 3 2 4 1 3 5 3 3 1 2 2 6 5 2 4 5 7 6 3 4 4 1 4 4 11 1 3 4 7 7 5 6 5 3 13 8 13 9 7 12 11 10 9
2 2 3 4 3 2 4 4 3 2 3 3 3 6 3 4 3 6 3 1 3 4 5 4 1 5 10 2 2 5 5 5 2 3 8 4 13 3 7 10 8 10 11 10 9
3 2 4 5 1 4 1 4 4 1 3 3 2 2 1 3 4 5 3 0 1 2 4 2 4 8 12 11 3 4 5 5 6 3 9 11 34 22 27 24 23 10 12 11 11
3 2 2 2 2 2 2 1 2 2 2 2 1 5 7 3 2 5 4 2 1 0 2 3 6 6 11 14 10 13 11 9 10 17 12 31 26 25 27 25 23 8 8 9 15
3 3 2 1 2 1 1 3 4 3 4 4 5 4 5 6 8 8 4 1 6 2 4 0 6 3 8 9 12 16 9 17 20 24 18 25 32 27 28 24 18 13 12 10 12
0 1 4 2 1 3 4 4 1 5 3 2 4 1 3 10 7 8 5 6 6 8 9 7 5 2 18 1 6 10 11 19 13 6 5 9 22 22 17 18 8 11 7 11 12
Wind_Direction
267 252 275 289 303 314 310 305 317 314 319 325 324 326 324 324 318 16 40 255 285 304 344 301 54 22 39 59 38 117 66 202 216 155 238 149 156 160 98 130 220 200 160 279 142
281 270 293 296 302 301 305 310 321 318 321 321 324 323 320 324 24 19 261 305 293 270 307 34 353 38 41 16 17 82 124 223 183 188 207 185 170 167 164 173 237 251 214 114 144
308 311 291 289 289 301 309 316 323 317 320 322 327 320 313 315 26 276 312 327 326 190 206 216 228 81 68 36 0 102 193 200 219 222 178 177 175 180 151 228 212 207 169 160 164
307 292 280 290 297 304 312 316 311 314 319 325 326 314 311 229 241 254 327 338 344 122 195 138 84 85 92 57 19 16 310 271 303 189 142 169 144 216 201 228 193 215 160 162 178
319 289 292 298 304 313 312 304 301 308 315 323 321 318 350 2 259 312 341 347 6 59 41 174 134 129 156 118 57 114 241 339 342 169 127 125 216 219 242 233 121 121 152 178 188
311 299 307 310 315 312 303 297 300 307 311 317 320 316 66 296 240 356 353 355 9 39 13 23 148 126 105 83 145 103 65 322 314 335 168 195 260 126 263 220 157 160 185 190 195
311 303 313 317 306 302 298 298 298 301 304 311 321 5 65 227 41 334 6 345 357 25 86 346 162 75 127 105 160 139 333 310 224 211 259 127 281 233 222 142 190 201 199 201 207
310 324 319 309 307 302 301 296 296 297 296 281 320 88 243 316 341 335 353 330 1 23 105 159 90 99 78 118 39 15 63 353 205 153 248 118 270 264 198 165 223 214 213 212 211
321 327 311 304 300 299 298 294 293 288 268 258 130 108 277 320 346 300 100 319 316 11 15 98 65 88 55 83 15 11 261 232 310 199 129 180 271 253 151 194 240 225 221 222 228
329 312 305 302 299 299 298 278 296 318 81 148 64 42 310 260 292 326 324 42 349 337 15 47 49 74 40 82 234 262 274 261 252 217 208 220 263 264 240 202 231 233 227 226 229
321 314 312 304 297 303 334 16 21 338 38 205 216 237 270 294 335 278 32 5 69 57 197 6 61 232 226 198 189 212 217 259 262 212 191 239 258 269 252 222 235 237 232 230 229
326 318 309 302 303 299 51 79 160 195 312 237 237 266 240 147 334 281 30 53 65 243 231 10 240 235 200 165 206 229 273 271 274 157 186 285 272 267 244 226 209 225 228 232 234
334 322 314 302 295 57 77 75 336 129 100 303 225 222 222 140 236 257 64 119 215 248 206 181 239 140 167 208 217 239 209 245 245 328 244 319 285 304 294 254 235 233 231 234 227
329 319 321 306 76 237 42 326 17 128 59 275 260 291 92 114 294 170 66 161 262 235 217 229 283 186 204 253 154 271 192 209 290 22 266 42 289 303 314 282 247 249 222 235 230
332 329 333 1 151 84 240 319 152 60 359 198 215 256 78 154 308 326 360 53 231 234 114 254 185 204 212 219 169 232 110 272 286 198 357 262 236 270 338 280 252 241 233 235 227
333 327 330 355 49 24 337 37 51 47 260 279 94 316 358 176 267 342 12 55 32 289 256 238 227 181 205 141 160 116 53 44 56 77 297 232 173 270 222 220 258 242 237 236 225
328 322 335 131 197 331 58 48 38 148 325 215 226 183 215 252 275 182 225 276 197 342 328 319 232 164 144 125 49 80 56 322 328 348 232 121 183 252 279 249 235 253 254 247 243
321 321 241 169 47 94 60 51 196 241 226 270 123 161 226 179 252 234 286 286 215 133 61 253 316 183 168 202 185 179 160 170 257 241 274 309 244 255 240 281 258 265 256 277 252
329 5 26 334 5 67 76 101 214 212 215 175 80 129 285 273 233 348 220 230 230 178 176 179 274 86 119 44 129 170 197 209 224 43 19 240 290 294 287 284 261 261 265 254 246
60 42 286 311 52 65 86 230 238 228 130 76 221 173 235 252 227 160 248 215 255 186 90 255 300 79 56 96 53 172 171 56 13 271 266 280 277 247 299 305 313 283 254 263 261
58 58 267 339 71 55 180 228 265 231 158 166 236 279 239 263 214 225 256 275 185 157 141 158 147 286 20 204 188 117 251 200 154 170 229 278 257 223 255 260 273 274 266 258 255
80 35 301 25 70 32 177 208 261 228 116 217 187 202 214 204 253 236 227 225 106 145 168 221 155 255 230 256 155 174 211 163 157 248 240 207 261 254 244 262 253 279 280 278 259
72 265 319 85 167 249 281 277 253 191 228 184 243 210 181 205 254 207 246 102 104 148 175 185 264 331 329 38 10 220 209 198 104 69 216 259 272 293 287 288 259 259 277 275 272
79 2 327 48 24 145 203 262 273 341 256 183 231 127 136 249 226 285 265 124 131 171 125 127 185 198 249 246 177 220 221 193 171 179 274 217 277 283 283 283 287 266 258 271 273
41 248 184 280 310 209 194 264 239 286 207 214 275 214 187 235 254 239 258 295 186 129 101 159 228 215 248 258 262 262 259 241 206 234 234 274 262 285 279 287 293 273 275 282 280
130 131 11 242 322 204 208 270 221 269 210 253 206 262 188 217 208 252 210 165 233 32 175 11 257 240 270 253 252 266 249 249 251 258 252 265 283 265 278 279 288 281 282 277 278
182 23 110 280 73 118 223 225 12 7 295 273 241 274 240 243 241 241 231 229 216 172 200 179 206 175 276 288 321 290 217 229 246 209 211 250 267 294 295 306 273 279 270 271 283